Retour au catalogue

STARLINK-3778

ActifCommunicationsVLEO
NORAD 52276·PAYLOAD·🇺🇸 United States

Lancé Apr 21, 2022 depuis Cape Canaveral Space Force Station

Loading…

Prochains Passages (prochaines 24 heures)

TLE

FraisSource: CelesTrak SupGP

Époque: Sep 15, 2026, 02:34 UTC

1 52276C 22041R   26258.10743056  .00044983  00000+0  13651-2 0  2583
2 52276  53.1600 332.9369 0001103  87.4924  20.8254 15.33524398    18

Suivez STARLINK-3778 en temps réel avec AllMySat

Download on the App Store